Time,TemperatureF,DewpointF,PressureIn,WindDirection,WindDirectionDegrees,WindSpeedMPH,WindSpeedGustMPH,Humidity,HourlyPrecipIn,Conditions,Clouds,dailyrainin,SoftwareType,DateUTC
2013-10-03 00:00:00,25.1,19.8,29.85,NNE,18,1.0,1.0,80,0.00,,,0.00,Wunderground v.1.15,2013-10-03 08:00:00,
2013-10-03 00:05:00,25.1,19.8,29.85,NNE,18,1.0,1.0,80,0.00,,,0.00,Wunderground v.1.15,2013-10-03 08:05:00,
2013-10-03 00:15:00,24.7,20.0,29.85,NNE,18,0.0,0.0,82,0.00,,,0.00,Wunderground v.1.15,2013-10-03 08:15:00,
2013-10-03 00:20:00,24.5,20.1,29.85,NNE,18,0.0,0.0,83,0.00,,,0.00,Wunderground v.1.15,2013-10-03 08:20:00,
2013-10-03 00:30:00,25.6,21.2,29.85,NNE,18,1.0,1.0,83,0.00,,,0.00,Wunderground v.1.15,2013-10-03 08:30:00,
2013-10-03 00:35:00,25.1,19.8,29.85,NNE,18,0.0,1.0,80,0.00,,,0.00,Wunderground v.1.15,2013-10-03 08:35:00,
2013-10-03 00:45:00,24.1,19.1,29.85,NNE,18,0.0,0.0,81,0.00,,,0.00,Wunderground v.1.15,2013-10-03 08:45:00,
2013-10-03 00:50:00,23.9,19.2,29.85,NNE,18,1.0,1.0,82,0.00,,,0.00,Wunderground v.1.15,2013-10-03 08:50:00,
2013-10-03 00:55:00,24.1,19.4,29.85,NNE,18,1.0,1.0,82,0.00,,,0.00,Wunderground v.1.15,2013-10-03 08:55:00,
2013-10-03 01:05:00,23.3,18.9,29.85,NNE,18,1.0,1.0,83,0.00,,,0.00,Wunderground v.1.15,2013-10-03 09:05:00,
2013-10-03 01:15:00,23.3,19.2,29.85,NNE,18,0.0,2.0,84,0.00,,,0.00,Wunderground v.1.15,2013-10-03 09:15:00,
2013-10-03 01:20:00,23.5,18.8,29.85,NNE,18,2.0,2.0,82,0.00,,,0.00,Wunderground v.1.15,2013-10-03 09:20:00,
2013-10-03 01:30:00,22.9,18.8,29.85,NNE,18,0.0,0.0,84,0.00,,,0.00,Wunderground v.1.15,2013-10-03 09:30:00,
2013-10-03 01:35:00,22.9,18.8,29.85,NNE,18,0.0,0.0,84,0.00,,,0.00,Wunderground v.1.15,2013-10-03 09:35:00,
2013-10-03 01:45:00,22.2,17.8,29.85,NNE,18,0.0,0.0,83,0.00,,,0.00,Wunderground v.1.15,2013-10-03 09:45:00,
2013-10-03 01:50:00,22.9,19.1,29.85,NNE,18,1.0,1.0,85,0.00,,,0.00,Wunderground v.1.15,2013-10-03 09:50:00,
2013-10-03 02:00:00,22.7,18.6,29.85,NNE,18,0.0,0.0,84,0.00,,,0.00,Wunderground v.1.15,2013-10-03 10:00:00,
2013-10-03 02:05:00,22.7,18.6,29.85,NNE,18,0.0,0.0,84,0.00,,,0.00,Wunderground v.1.15,2013-10-03 10:05:00,
2013-10-03 02:10:00,22.2,18.1,29.85,NNE,18,0.0,0.0,84,0.00,,,0.00,Wunderground v.1.15,2013-10-03 10:10:00,
2013-10-03 02:20:00,21.4,17.9,29.85,NNE,18,0.0,0.0,86,0.00,,,0.00,Wunderground v.1.15,2013-10-03 10:20:00,
2013-10-03 02:25:00,21.3,17.5,29.85,NNE,18,0.0,0.0,85,0.00,,,0.00,Wunderground v.1.15,2013-10-03 10:25:00,
2013-10-03 02:30:00,20.5,17.2,29.85,NNE,18,0.0,0.0,87,0.00,,,0.00,Wunderground v.1.15,2013-10-03 10:30:00,
2013-10-03 02:40:00,20.5,17.2,29.85,NNE,18,1.0,1.0,87,0.00,,,0.00,Wunderground v.1.15,2013-10-03 10:40:00,
2013-10-03 02:45:00,20.6,17.3,29.85,NNE,18,2.0,3.0,87,0.00,,,0.00,Wunderground v.1.15,2013-10-03 10:45:00,
2013-10-03 02:55:00,21.0,17.7,29.85,NNE,15,2.0,3.0,87,0.00,,,0.00,Wunderground v.1.15,2013-10-03 10:55:00,
2013-10-03 03:05:00,21.0,17.2,29.85,NNE,15,3.0,4.0,85,0.00,,,0.00,Wunderground v.1.15,2013-10-03 11:05:00,
2013-10-03 03:15:00,20.3,16.5,29.84,NNE,15,2.0,3.0,85,0.00,,,0.00,Wunderground v.1.15,2013-10-03 11:15:00,
2013-10-03 03:20:00,20.3,16.8,29.84,NNE,15,2.0,2.0,86,0.00,,,0.00,Wunderground v.1.15,2013-10-03 11:20:00,
2013-10-03 03:25:00,20.0,16.8,29.84,NNE,15,2.0,3.0,87,0.00,,,0.00,Wunderground v.1.15,2013-10-03 11:25:00,
2013-10-03 03:30:00,19.9,16.7,29.84,NNE,15,3.0,3.0,87,0.00,,,0.00,Wunderground v.1.15,2013-10-03 11:30:00,
2013-10-03 03:40:00,18.9,15.4,29.84,NNE,15,1.0,1.0,86,0.00,,,0.00,Wunderground v.1.15,2013-10-03 11:40:00,
2013-10-03 03:45:00,18.8,15.3,29.84,NNE,15,0.0,1.0,86,0.00,,,0.00,Wunderground v.1.15,2013-10-03 11:45:00,
2013-10-03 03:50:00,17.7,14.5,29.84,NNE,15,1.0,1.0,87,0.00,,,0.00,Wunderground v.1.15,2013-10-03 11:50:00,
2013-10-03 04:00:00,17.5,14.6,29.84,NNE,15,0.0,0.0,88,0.00,,,0.00,Wunderground v.1.15,2013-10-03 12:00:00,
2013-10-03 04:05:00,17.5,14.6,29.84,NNE,15,0.0,0.0,88,0.00,,,0.00,Wunderground v.1.15,2013-10-03 12:05:00,
2013-10-03 04:10:00,17.5,14.6,29.84,NNE,15,2.0,2.0,88,0.00,,,0.00,Wunderground v.1.15,2013-10-03 12:10:00,
2013-10-03 04:20:00,17.3,14.4,29.84,NNE,15,2.0,2.0,88,0.00,,,0.00,Wunderground v.1.15,2013-10-03 12:20:00,
2013-10-03 04:25:00,17.2,14.3,29.84,NNE,15,0.0,2.0,88,0.00,,,0.00,Wunderground v.1.15,2013-10-03 12:25:00,
2013-10-03 04:30:00,17.2,14.5,29.83,NNE,15,0.0,0.0,89,0.00,,,0.00,Wunderground v.1.15,2013-10-03 12:30:00,
2013-10-03 04:35:00,17.2,14.5,29.83,NNE,15,0.0,0.0,89,0.00,,,0.00,Wunderground v.1.15,2013-10-03 12:35:00,
2013-10-03 04:45:00,17.7,15.3,29.83,NNE,15,0.0,0.0,90,0.00,,,0.00,Wunderground v.1.15,2013-10-03 12:45:00,
2013-10-03 04:55:00,18.4,16.0,29.83,NNE,15,0.0,1.0,90,0.00,,,0.00,Wunderground v.1.15,2013-10-03 12:55:00,
2013-10-03 05:00:00,18.4,15.4,29.83,NNE,15,0.0,1.0,88,0.00,,,0.00,Wunderground v.1.15,2013-10-03 13:00:00,
2013-10-03 05:05:00,18.4,15.4,29.83,NNE,15,1.0,2.0,88,0.00,,,0.00,Wunderground v.1.15,2013-10-03 13:05:00,
2013-10-03 05:15:00,17.8,14.6,29.84,NNE,15,1.0,2.0,87,0.00,,,0.00,Wunderground v.1.15,2013-10-03 13:15:00,
2013-10-03 05:20:00,17.8,14.8,29.84,NNE,15,0.0,0.0,88,0.00,,,0.00,Wunderground v.1.15,2013-10-03 13:20:00,
2013-10-03 05:30:00,17.5,14.6,29.83,NNE,15,0.0,0.0,88,0.00,,,0.00,Wunderground v.1.15,2013-10-03 13:30:00,
2013-10-03 05:35:00,17.5,14.8,29.83,NNE,15,0.0,0.0,89,0.00,,,0.00,Wunderground v.1.15,2013-10-03 13:35:00,
2013-10-03 05:45:00,18.1,15.7,29.83,NNE,15,0.0,0.0,90,0.00,,,0.00,Wunderground v.1.15,2013-10-03 13:45:00,
2013-10-03 05:50:00,18.3,15.6,29.83,NNE,15,0.0,0.0,89,0.00,,,0.00,Wunderground v.1.15,2013-10-03 13:50:00,
2013-10-03 06:00:00,19.2,16.7,29.83,NNE,15,1.0,1.0,90,0.00,,,0.00,Wunderground v.1.15,2013-10-03 14:00:00,
2013-10-03 06:05:00,19.5,17.0,29.83,NNE,15,2.0,2.0,90,0.00,,,0.00,Wunderground v.1.15,2013-10-03 14:05:00,
2013-10-03 06:15:00,18.6,15.4,29.83,NNE,15,0.0,1.0,87,0.00,,,0.00,Wunderground v.1.15,2013-10-03 14:15:00,
2013-10-03 06:25:00,18.4,15.2,29.83,NNE,15,1.0,1.0,87,0.00,,,0.00,Wunderground v.1.15,2013-10-03 14:25:00,
2013-10-03 06:30:00,-999.9,-99.9,29.83,North,32767,-999.0,0.0,255,-99.99,,,0.00,Wunderground v.1.15,2013-10-03 14:30:00,
2013-10-03 06:40:00,-999.9,-99.9,29.83,North,32767,-999.0,0.0,255,-99.99,,,0.00,Wunderground v.1.15,2013-10-03 14:40:00,
2013-10-03 06:45:00,-999.9,-99.9,29.83,North,32767,-999.0,0.0,255,-99.99,,,0.00,Wunderground v.1.15,2013-10-03 14:45:00,
2013-10-03 06:55:00,-999.9,-99.9,29.83,North,32767,-999.0,0.0,255,-99.99,,,0.00,Wunderground v.1.15,2013-10-03 14:55:00,
2013-10-03 07:05:00,-999.9,-99.9,29.83,North,32767,-999.0,0.0,255,-99.99,,,0.00,Wunderground v.1.15,2013-10-03 15:05:00,
2013-10-03 07:15:00,-999.9,-99.9,29.83,North,32767,-999.0,0.0,255,-99.99,,,0.00,Wunderground v.1.15,2013-10-03 15:15:00,
2013-10-03 07:20:00,-999.9,-99.9,29.83,North,32767,-999.0,0.0,255,-99.99,,,0.00,Wunderground v.1.15,2013-10-03 15:20:00,
2013-10-03 07:30:00,-999.9,-99.9,29.83,North,32767,-999.0,0.0,255,-99.99,,,0.00,Wunderground v.1.15,2013-10-03 15:30:00,
2013-10-03 07:40:00,-999.9,-99.9,29.83,North,32767,-999.0,0.0,255,-99.99,,,0.00,Wunderground v.1.15,2013-10-03 15:40:00,
2013-10-03 07:45:00,-999.9,-99.9,29.82,North,32767,-999.0,0.0,255,-99.99,,,0.00,Wunderground v.1.15,2013-10-03 15:45:00,
2013-10-03 07:55:00,-999.9,-99.9,29.82,North,32767,-999.0,0.0,255,-99.99,,,0.00,Wunderground v.1.15,2013-10-03 15:55:00,
2013-10-03 08:05:00,-999.9,-99.9,29.82,North,32767,-999.0,0.0,255,-99.99,,,0.00,Wunderground v.1.15,2013-10-03 16:05:00,
2013-10-03 08:15:00,-999.9,-99.9,29.83,North,32767,-999.0,0.0,255,-99.99,,,0.00,Wunderground v.1.15,2013-10-03 16:15:00,
2013-10-03 08:20:00,-999.9,-99.9,29.83,North,32767,-999.0,0.0,255,-99.99,,,0.00,Wunderground v.1.15,2013-10-03 16:20:00,
2013-10-03 08:29:00,24.8,21.2,29.82,NNE,15,0.0,0.0,86,0.00,,,0.00,Wunderground v.1.15,2013-10-03 16:29:00,
2013-10-03 08:35:00,24.8,21.2,29.82,NNE,15,0.0,0.0,86,0.00,,,0.00,Wunderground v.1.15,2013-10-03 16:35:00,
2013-10-03 08:40:00,25.0,21.7,29.82,NNE,15,0.0,0.0,87,0.00,,,0.00,Wunderground v.1.15,2013-10-03 16:40:00,
2013-10-03 08:50:00,25.6,22.0,29.82,NNE,15,0.0,0.0,86,0.00,,,0.00,Wunderground v.1.15,2013-10-03 16:50:00,
2013-10-03 08:55:00,25.7,21.8,29.82,NNE,15,1.0,1.0,85,0.00,,,0.00,Wunderground v.1.15,2013-10-03 16:55:00,
2013-10-03 09:05:00,25.8,21.9,29.82,NNE,15,0.0,1.0,85,0.00,,,0.00,Wunderground v.1.15,2013-10-03 17:05:00,
2013-10-03 09:10:00,25.8,22.2,29.82,NNE,15,0.0,0.0,86,0.00,,,0.00,Wunderground v.1.15,2013-10-03 17:10:00,
2013-10-03 09:20:00,26.0,22.7,29.82,NNE,15,0.0,0.0,87,0.00,,,0.00,Wunderground v.1.15,2013-10-03 17:20:00,
2013-10-03 09:25:00,26.0,22.7,29.82,NNE,15,0.0,0.0,87,0.00,,,0.00,Wunderground v.1.15,2013-10-03 17:25:00,
2013-10-03 09:30:00,27.2,23.8,29.82,NNE,15,0.0,0.0,87,0.00,,,0.00,Wunderground v.1.15,2013-10-03 17:30:00,
2013-10-03 09:40:00,27.2,23.8,29.82,NNE,15,0.0,0.0,87,0.00,,,0.00,Wunderground v.1.15,2013-10-03 17:40:00,
2013-10-03 09:45:00,28.5,24.0,29.82,NNE,15,0.0,0.0,83,0.00,,,0.00,Wunderground v.1.15,2013-10-03 17:45:00,
2013-10-03 09:54:00,29.0,24.2,29.82,NNE,15,2.0,2.0,82,0.00,,,0.00,Wunderground v.1.15,2013-10-03 17:54:00,
2013-10-03 10:00:00,29.4,24.3,29.81,NNE,29,2.0,2.0,81,0.00,,,0.00,Wunderground v.1.15,2013-10-03 18:00:00,
2013-10-03 10:10:00,29.1,24.3,29.81,NNE,29,0.0,1.0,82,0.00,,,0.00,Wunderground v.1.15,2013-10-03 18:10:00,
2013-10-03 10:15:00,29.5,24.7,29.81,NNE,29,0.0,1.0,82,0.00,,,0.00,Wunderground v.1.15,2013-10-03 18:15:00,
2013-10-03 10:25:00,29.8,24.4,29.81,NNE,29,0.0,0.0,80,0.00,,,0.00,Wunderground v.1.15,2013-10-03 18:25:00,
2013-10-03 10:35:00,30.0,24.6,29.81,NNE,29,0.0,0.0,80,0.00,,,0.00,Wunderground v.1.15,2013-10-03 18:35:00,
2013-10-03 10:40:00,30.1,25.0,29.81,NNE,29,0.0,0.0,81,0.00,,,0.00,Wunderground v.1.15,2013-10-03 18:40:00,
2013-10-03 10:50:00,30.1,25.0,29.81,NNE,29,0.0,0.0,81,0.00,,,0.00,Wunderground v.1.15,2013-10-03 18:50:00,
2013-10-03 10:55:00,30.6,25.5,29.81,NNE,29,0.0,0.0,81,0.00,,,0.00,Wunderground v.1.15,2013-10-03 18:55:00,
2013-10-03 11:05:00,31.0,26.1,29.81,NNE,29,0.0,0.0,82,0.00,,,0.00,Wunderground v.1.15,2013-10-03 19:05:00,
2013-10-03 11:15:00,31.0,26.1,29.81,NNE,29,0.0,0.0,82,0.00,,,0.00,Wunderground v.1.15,2013-10-03 19:15:00,
2013-10-03 11:20:00,31.5,26.6,29.81,NNE,29,0.0,0.0,82,0.00,,,0.00,Wunderground v.1.15,2013-10-03 19:20:00,
2013-10-03 11:29:00,31.5,26.9,29.81,NNE,29,0.0,0.0,83,0.00,,,0.00,Wunderground v.1.15,2013-10-03 19:29:00,
2013-10-03 11:35:00,31.6,27.0,29.81,NNE,29,0.0,0.0,83,0.00,,,0.00,Wunderground v.1.15,2013-10-03 19:35:00,
2013-10-03 11:40:00,31.8,26.6,29.81,NNE,29,0.0,0.0,81,0.00,,,0.00,Wunderground v.1.15,2013-10-03 19:40:00,
2013-10-03 11:50:00,31.9,26.4,29.81,NNE,29,0.0,0.0,80,0.00,,,0.00,Wunderground v.1.15,2013-10-03 19:50:00,
2013-10-03 11:59:00,31.9,26.4,29.81,NNE,29,0.0,0.0,80,0.00,,,0.00,Wunderground v.1.15,2013-10-03 19:59:00,
2013-10-03 12:05:00,-999.9,-99.9,29.81,North,32767,-999.0,0.0,255,-99.99,,,0.00,Wunderground v.1.15,2013-10-03 20:05:00,
2013-10-03 12:15:00,-999.9,-99.9,29.81,North,32767,-999.0,0.0,255,-99.99,,,0.00,Wunderground v.1.15,2013-10-03 20:15:00,
2013-10-03 12:25:00,-999.9,-99.9,29.81,North,32767,-999.0,0.0,255,-99.99,,,0.00,Wunderground v.1.15,2013-10-03 20:25:00,
2013-10-03 12:35:00,33.4,27.0,29.80,NNE,33,3.0,3.0,77,0.00,,,0.00,Wunderground v.1.15,2013-10-03 20:35:00,
2013-10-03 12:40:00,33.7,27.3,29.80,NE,35,2.0,2.0,77,0.00,,,0.00,Wunderground v.1.15,2013-10-03 20:40:00,
2013-10-03 12:50:00,34.0,26.9,29.80,NE,35,2.0,2.0,75,0.00,,,0.00,Wunderground v.1.15,2013-10-03 20:50:00,
2013-10-03 13:00:00,-999.9,-99.9,29.80,North,32767,-999.0,0.0,255,-99.99,,,0.00,Wunderground v.1.15,2013-10-03 21:00:00,
2013-10-03 13:05:00,-999.9,-99.9,29.80,North,32767,-999.0,0.0,255,-99.99,,,0.00,Wunderground v.1.15,2013-10-03 21:05:00,
2013-10-03 13:15:00,-999.9,-99.9,29.80,North,32767,-999.0,0.0,255,-99.99,,,0.00,Wunderground v.1.15,2013-10-03 21:15:00,
2013-10-03 13:25:00,-999.9,-99.9,29.80,North,32767,-999.0,0.0,255,-99.99,,,0.00,Wunderground v.1.15,2013-10-03 21:25:00,
2013-10-03 13:30:00,-999.9,-99.9,29.80,North,32767,-999.0,0.0,255,-99.99,,,0.00,Wunderground v.1.15,2013-10-03 21:30:00,
2013-10-03 13:40:00,-999.9,-99.9,29.80,North,32767,-999.0,0.0,255,-99.99,,,0.00,Wunderground v.1.15,2013-10-03 21:40:00,
2013-10-03 13:50:00,35.3,-99.9,29.80,NE,39,2.0,2.0,255,0.00,,,0.00,Wunderground v.1.15,2013-10-03 21:50:00,
2013-10-03 14:00:00,35.5,26.3,29.80,NE,39,1.0,1.0,69,0.00,,,0.00,Wunderground v.1.15,2013-10-03 22:00:00,
2013-10-03 14:10:00,35.5,26.3,29.80,NE,39,2.0,2.0,69,0.00,,,0.00,Wunderground v.1.15,2013-10-03 22:10:00,
2013-10-03 14:15:00,35.5,26.0,29.80,NE,37,2.0,2.0,68,0.00,,,0.00,Wunderground v.1.15,2013-10-03 22:15:00,
2013-10-03 14:24:00,-999.9,-99.9,29.80,North,32767,-999.0,0.0,255,-99.99,,,0.00,Wunderground v.1.15,2013-10-03 22:24:00,
2013-10-03 14:30:00,-999.9,-99.9,29.80,North,32767,-999.0,0.0,255,-99.99,,,0.00,Wunderground v.1.15,2013-10-03 22:30:00,
2013-10-03 14:40:00,-999.9,-99.9,29.80,North,32767,-999.0,0.0,255,-99.99,,,0.00,Wunderground v.1.15,2013-10-03 22:40:00,
2013-10-03 14:45:00,-999.9,-99.9,29.79,North,32767,-999.0,0.0,255,-99.99,,,0.00,Wunderground v.1.15,2013-10-03 22:45:00,
2013-10-03 14:55:00,-999.9,-99.9,29.79,North,32767,-999.0,0.0,255,-99.99,,,0.00,Wunderground v.1.15,2013-10-03 22:55:00,
2013-10-03 15:05:00,-999.9,-99.9,29.79,North,32767,-999.0,0.0,255,-99.99,,,0.00,Wunderground v.1.15,2013-10-03 23:05:00,
2013-10-03 15:15:00,-999.9,-99.9,29.78,North,32767,-999.0,0.0,255,-99.99,,,0.00,Wunderground v.1.15,2013-10-03 23:15:00,
2013-10-03 15:20:00,-999.9,-99.9,29.78,North,32767,-999.0,0.0,255,-99.99,,,0.00,Wunderground v.1.15,2013-10-03 23:20:00,
2013-10-03 15:30:00,-999.9,-99.9,29.78,North,32767,-999.0,0.0,255,-99.99,,,0.00,Wunderground v.1.15,2013-10-03 23:30:00,
2013-10-03 15:40:00,35.6,25.4,29.78,ENE,78,3.0,3.0,66,0.00,,,0.00,Wunderground v.1.15,2013-10-03 23:40:00,
2013-10-03 15:50:00,35.5,26.0,29.77,East,92,3.0,3.0,68,0.00,,,0.00,Wunderground v.1.15,2013-10-03 23:50:00,
2013-10-03 16:00:00,35.5,26.0,29.77,ENE,70,3.0,3.0,68,0.00,,,0.00,Wunderground v.1.15,2013-10-04 00:00:00,
2013-10-03 16:10:00,35.5,26.0,29.77,ENE,70,6.0,6.0,68,0.00,,,0.00,Wunderground v.1.15,2013-10-04 00:10:00,
2013-10-03 16:15:00,-999.9,-99.9,29.77,North,32767,-999.0,6.0,255,-99.99,,,0.00,Wunderground v.1.15,2013-10-04 00:15:00,
2013-10-03 16:25:00,-999.9,-99.9,29.77,North,32767,-999.0,0.0,255,-99.99,,,0.00,Wunderground v.1.15,2013-10-04 00:25:00,
2013-10-03 16:35:00,-999.9,-99.9,29.77,North,32767,-999.0,0.0,255,-99.99,,,0.00,Wunderground v.1.15,2013-10-04 00:35:00,
2013-10-03 16:40:00,-999.9,-99.9,29.77,North,32767,-999.0,0.0,255,-99.99,,,0.00,Wunderground v.1.15,2013-10-04 00:40:00,
2013-10-03 16:50:00,-999.9,-99.9,29.77,North,32767,-999.0,0.0,255,-99.99,,,0.00,Wunderground v.1.15,2013-10-04 00:50:00,
2013-10-03 17:00:00,-999.9,-99.9,29.77,North,32767,-999.0,0.0,255,-99.99,,,0.00,Wunderground v.1.15,2013-10-04 01:00:00,
2013-10-03 17:10:00,-999.9,-99.9,29.77,North,32767,-999.0,0.0,255,-99.99,,,0.00,Wunderground v.1.15,2013-10-04 01:10:00,
2013-10-03 17:20:00,-999.9,-99.9,29.76,North,32767,-999.0,0.0,255,-99.99,,,0.00,Wunderground v.1.15,2013-10-04 01:20:00,
2013-10-03 17:25:00,-999.9,-99.9,29.76,North,32767,-999.0,0.0,255,-99.99,,,0.00,Wunderground v.1.15,2013-10-04 01:25:00,
2013-10-03 17:34:00,-999.9,-99.9,29.76,North,32767,-999.0,0.0,255,-99.99,,,0.00,Wunderground v.1.15,2013-10-04 01:34:00,
2013-10-03 17:40:00,35.6,26.1,29.76,NE,39,0.0,0.0,68,0.00,,,0.00,Wunderground v.1.15,2013-10-04 01:40:00,
2013-10-03 17:45:00,35.6,25.7,29.76,NE,40,1.0,4.0,67,0.00,,,0.00,Wunderground v.1.15,2013-10-04 01:45:00,
2013-10-03 17:55:00,35.6,25.7,29.76,NE,36,1.0,2.0,67,0.00,,,0.00,Wunderground v.1.15,2013-10-04 01:55:00,
2013-10-03 18:05:00,-999.9,-99.9,29.76,North,32767,-999.0,0.0,255,-99.99,,,0.00,Wunderground v.1.15,2013-10-04 02:05:00,
2013-10-03 18:10:00,-999.9,-99.9,29.76,North,32767,-999.0,0.0,255,-99.99,,,0.00,Wunderground v.1.15,2013-10-04 02:10:00,
2013-10-03 18:15:00,-999.9,-99.9,29.75,North,32767,-999.0,0.0,255,-99.99,,,0.00,Wunderground v.1.15,2013-10-04 02:15:00,
2013-10-03 18:25:00,-999.9,-99.9,29.75,North,32767,-999.0,0.0,255,-99.99,,,0.00,Wunderground v.1.15,2013-10-04 02:25:00,
2013-10-03 18:35:00,35.9,26.0,29.75,NE,52,0.0,0.0,67,0.00,,,0.00,Wunderground v.1.15,2013-10-04 02:35:00,
2013-10-03 18:45:00,35.9,25.6,29.76,ENE,78,1.0,1.0,66,0.00,,,0.00,Wunderground v.1.15,2013-10-04 02:45:00,
2013-10-03 18:54:00,35.9,25.6,29.76,SE,124,3.0,3.0,66,0.00,,,0.00,Wunderground v.1.15,2013-10-04 02:54:00,
2013-10-03 19:00:00,-999.9,-99.9,29.75,North,32767,-999.0,0.0,255,-99.99,,,0.00,Wunderground v.1.15,2013-10-04 03:00:00,
2013-10-03 19:10:00,-999.9,-99.9,29.75,North,32767,-999.0,0.0,255,-99.99,,,0.00,Wunderground v.1.15,2013-10-04 03:10:00,
2013-10-03 19:20:00,35.0,25.5,29.75,SE,129,1.0,2.0,68,0.00,,,0.00,Wunderground v.1.15,2013-10-04 03:20:00,
2013-10-03 19:25:00,34.7,25.2,29.75,SE,128,1.0,2.0,68,0.00,,,0.00,Wunderground v.1.15,2013-10-04 03:25:00,
2013-10-03 19:35:00,34.4,25.3,29.76,SE,128,1.0,2.0,69,0.00,,,0.00,Wunderground v.1.15,2013-10-04 03:35:00,
2013-10-03 19:40:00,34.4,25.3,29.76,SE,128,2.0,2.0,69,0.00,,,0.00,Wunderground v.1.15,2013-10-04 03:40:00,
2013-10-03 19:50:00,-999.9,-99.9,29.76,North,32767,-999.0,0.0,255,-99.99,,,0.00,Wunderground v.1.15,2013-10-04 03:50:00,
2013-10-03 19:55:00,-999.9,-99.9,29.76,North,32767,-999.0,0.0,255,-99.99,,,0.00,Wunderground v.1.15,2013-10-04 03:55:00,
2013-10-03 20:39:00,32.8,25.4,29.77,ESE,115,0.0,0.0,74,0.00,,,0.00,Wunderground v.1.15,2013-10-04 04:39:00,
2013-10-03 20:45:00,31.8,24.5,29.77,ESE,115,0.0,0.0,74,0.00,,,0.00,Wunderground v.1.15,2013-10-04 04:45:00,
2013-10-03 20:55:00,31.0,24.3,29.77,ESE,115,0.0,0.0,76,0.00,,,0.00,Wunderground v.1.15,2013-10-04 04:55:00,
2013-10-03 21:00:00,30.9,24.2,29.77,ESE,115,0.0,0.0,76,0.00,,,0.00,Wunderground v.1.15,2013-10-04 05:00:00,
2013-10-03 21:04:00,30.9,24.2,29.77,ESE,115,0.0,0.0,76,0.00,,,0.00,Wunderground v.1.15,2013-10-04 05:04:00,
2013-10-03 21:10:00,30.9,24.2,29.77,ESE,115,0.0,0.0,76,0.00,,,0.00,Wunderground v.1.15,2013-10-04 05:10:00,
2013-10-03 21:15:00,30.0,24.0,29.77,ESE,115,0.0,0.0,78,0.00,,,0.00,Wunderground v.1.15,2013-10-04 05:15:00,
2013-10-03 21:19:00,29.7,24.0,29.77,ESE,115,0.0,1.0,79,0.00,,,0.00,Wunderground v.1.15,2013-10-04 05:19:00,
2013-10-03 21:29:00,29.5,23.8,29.77,ESE,115,1.0,1.0,79,0.00,,,0.00,Wunderground v.1.15,2013-10-04 05:29:00,
2013-10-03 21:34:00,29.4,24.0,29.77,ESE,115,2.0,2.0,80,0.00,,,0.00,Wunderground v.1.15,2013-10-04 05:34:00,
2013-10-03 21:44:00,29.4,24.0,29.77,ESE,115,2.0,2.0,80,0.00,,,0.00,Wunderground v.1.15,2013-10-04 05:44:00,
2013-10-03 21:49:00,29.5,23.8,29.77,ESE,115,0.0,0.0,79,0.00,,,0.00,Wunderground v.1.15,2013-10-04 05:49:00,
2013-10-03 21:55:00,29.3,24.2,29.77,ESE,115,0.0,0.0,81,0.00,,,0.00,Wunderground v.1.15,2013-10-04 05:55:00,
2013-10-03 22:04:00,28.5,23.4,29.77,ESE,115,0.0,0.0,81,0.00,,,0.00,Wunderground v.1.15,2013-10-04 06:04:00,
2013-10-03 22:09:00,28.1,23.3,29.77,ESE,115,0.0,0.0,82,0.00,,,0.00,Wunderground v.1.15,2013-10-04 06:09:00,
2013-10-03 22:19:00,27.6,22.8,29.77,ESE,115,0.0,0.0,82,0.00,,,0.00,Wunderground v.1.15,2013-10-04 06:19:00,
2013-10-03 22:25:00,27.3,22.5,29.77,ESE,115,0.0,0.0,82,0.00,,,0.00,Wunderground v.1.15,2013-10-04 06:25:00,
2013-10-03 22:34:00,27.3,22.8,29.77,ESE,115,0.0,0.0,83,0.00,,,0.00,Wunderground v.1.15,2013-10-04 06:34:00,
2013-10-03 22:39:00,26.6,22.4,29.77,ESE,115,0.0,0.0,84,0.00,,,0.00,Wunderground v.1.15,2013-10-04 06:39:00,
2013-10-03 22:49:00,26.9,23.0,29.78,ESE,115,0.0,0.0,85,0.00,,,0.00,Wunderground v.1.15,2013-10-04 06:49:00,
2013-10-03 22:59:00,26.7,22.5,29.78,ESE,115,0.0,0.0,84,0.00,,,0.00,Wunderground v.1.15,2013-10-04 06:59:00,
2013-10-03 23:04:00,26.7,22.5,29.78,ESE,115,0.0,0.0,84,0.00,,,0.00,Wunderground v.1.15,2013-10-04 07:04:00,
2013-10-03 23:06:00,26.7,22.5,29.78,ESE,115,0.0,0.0,84,0.00,,,0.00,Wunderground v.1.15,2013-10-04 07:06:00,
2013-10-03 23:15:00,26.4,22.8,29.79,ESE,115,0.0,0.0,86,0.00,,,0.00,Wunderground v.1.15,2013-10-04 07:15:00,
2013-10-03 23:25:00,27.8,23.0,29.79,ESE,115,0.0,0.0,82,0.00,,,0.00,Wunderground v.1.15,2013-10-04 07:25:00,
2013-10-03 23:30:00,27.8,23.0,29.79,ESE,115,0.0,0.0,82,0.00,,,0.00,Wunderground v.1.15,2013-10-04 07:30:00,
2013-10-03 23:35:00,27.2,22.4,29.79,ESE,115,0.0,0.0,82,0.00,,,0.00,Wunderground v.1.15,2013-10-04 07:35:00,
2013-10-03 23:45:00,27.2,22.7,29.79,ESE,115,0.0,0.0,83,0.00,,,0.00,Wunderground v.1.15,2013-10-04 07:45:00,
2013-10-03 23:55:00,25.6,21.7,29.79,ESE,115,0.0,0.0,85,0.00,,,0.00,Wunderground v.1.15,2013-10-04 07:55:00,